Zurück zum Katalog

FENGYUN 1C DEB

AktivPO
NORAD 30454·DEBRIS·🇨🇳 China

Gestartet May 10, 1999 von Taiyuan Satellite Launch Center

Loading…

Nächste Überflüge (nächste 24 Stunden)

TLE

AktuellSource: Space-Track

Epoche: Sep 14, 2026, 15:00 UTC

1 30454U 99025AFR 26257.62537931  .00003860  00000-0  16459-2 0  9993
2 30454  98.1355 209.6519 0168030 109.6744  63.9050 14.18268614998673

Verfolge FENGYUN 1C DEB in Echtzeit mit AllMySat

Download on the App Store